A65FH-13 Weather Reports


Display with metric or nautical units.
time (UTC)temp
F
wind
direction
speed
MPH
gust
MPH
rain 1hr
in
rain 24hr
in
rain mn
in
humidity
%
barometer
mb
20220706220831 99 0.0 0.0 0.00 0.00 0.00 44 993.5
20220706213831 99 0.0 0.0 0.00 0.00 0.00 42 993.7
20220706210831 99 0.0 0.0 0.00 0.00 0.00 41 993.6
20220706203830 99 0.0 0.0 0.00 0.00 0.00 42 994.0
20220706200831 100 0.0 0.0 0.00 0.00 0.00 41 994.3
20220706193830 100 0.0 0.0 0.00 0.00 0.00 41 994.2
20220706190831 100 0.0 0.0 0.00 0.00 0.00 41 994.2
20220706183830 100 0.0 0.0 0.00 0.00 0.00 38 994.0
20220706180831 100 0.0 0.0 0.00 0.00 0.00 38 993.7
20220706173830 100 0.0 0.0 0.00 0.00 0.00 37 993.7
20220706170830 101 0.0 0.0 0.00 0.00 0.00 35 993.8
20220706163830 101 0.0 0.0 0.00 0.00 0.00 49 993.2
20220706160830 101 0.0 0.0 0.00 0.00 0.00 49 993.0
20220706153831 102 0.0 0.0 0.00 0.00 0.00 45 992.9
20220706150831 102 0.0 0.0 0.00 0.00 0.00 44 992.6
20220706143831 102 0.0 0.0 0.00 0.00 0.00 43 992.0
20220706140830 102 0.0 0.0 0.00 0.00 0.00 42 991.6
20220706133830 102 0.0 0.0 0.00 0.00 0.00 44 991.3
20220706130830 102 0.0 0.0 0.00 0.00 0.00 42 991.3
20220706123830 103 0.0 0.0 0.00 0.00 0.00 41 990.9
20220706120830 103 0.0 0.0 0.00 0.00 0.00 45 991.1
20220706113830 102 0.0 0.0 0.00 0.00 0.00 51 991.5
20220706110831 102 0.0 0.0 0.00 0.00 0.00 54 991.7
20220706103830 104 0.0 0.0 0.00 0.00 0.00 50 991.7
20220706100830 104 0.0 0.0 0.00 0.00 0.00 56 991.5
20220706093830 103 0.0 0.0 0.00 0.00 0.00 59 992.2
20220706090830 101 0.0 0.0 0.00 0.00 0.00 60 992.7
20220706083830 101 0.0 0.0 0.00 0.00 0.00 60 993.1
20220706080831 101 0.0 0.0 0.00 0.00 0.00 61 993.1
20220706073830 101 0.0 0.0 0.00 0.00 0.00 63 993.3
20220706070831 101 0.0 0.0 0.00 0.00 0.00 60 993.0
20220706063829 101 0.0 0.0 0.00 0.00 0.00 53 993.0
20220706060830 100 0.0 0.0 0.00 0.00 0.00 54 992.9
20220706053830 100 0.0 0.0 0.00 0.00 0.00 57 992.9
20220706050830 100 0.0 0.0 0.00 0.00 0.00 58 992.7
20220706043830 99 0.0 0.0 0.00 0.00 0.00 63 992.8
20220706040829 98 0.0 0.0 0.00 0.00 0.00 65 992.6
20220706033829 98 0.0 0.0 0.00 0.00 0.00 64 992.1
20220706030829 98 0.0 0.0 0.00 0.00 0.00 65 991.6
20220706023829 98 0.0 0.0 0.00 0.00 0.00 64 991.5
20220706020830 98 0.0 0.0 0.00 0.00 0.00 63 991.2
20220706013829 98 0.0 0.0 0.00 0.00 0.00 63 991.0
20220706010830 98 0.0 0.0 0.00 0.00 0.00 63 990.5
20220706003829 98 0.0 0.0 0.00 0.00 0.00 63 990.7
20220706000830 98 0.0 0.0 0.00 0.00 0.00 63 990.4
20220705233829 98 0.0 0.0 0.00 0.00 0.00 63 990.6
20220705230830 98 0.0 0.0 0.00 0.00 0.00 67 990.5
20220705223829 99 0.0 0.0 0.00 0.00 0.00 66 990.8